,,PA_Meas_PMT16A,,PR_Meas_QMR101_102,,RH_Meas_QMH101,,SR_Meas_QMS101,,TA_Meas_QMH101,,GenWind,,GenWind,
time,status,PA,status,PR,status,RH,status,SR,status,TA,status,DirAvg,status,SpdAvg,
2009-09-19, 00:00:04,VALID,920.463,VALID,0,VALID,97.6407,VALID,0,VALID,18.2782,VALID,112,VALID,0,
2009-09-19, 00:01:04,VALID,920.449,VALID,0,VALID,97.6483,VALID,0,VALID,18.3185,VALID,112,VALID,0.226563,
2009-09-19, 00:02:04,VALID,920.417,VALID,0,VALID,97.6255,VALID,0,VALID,18.2977,VALID,112,VALID,0.308984,
2009-09-19, 00:03:04,VALID,920.409,VALID,0,VALID,97.6178,VALID,0,VALID,18.3172,VALID,112,VALID,0.477734,
2009-09-19, 00:04:04,VALID,920.414,VALID,0,VALID,97.6178,VALID,0,VALID,18.2977,VALID,112,VALID,0.409375,
2009-09-19, 00:05:04,VALID,920.431,VALID,0,VALID,97.595,VALID,0,VALID,18.2782,VALID,112,VALID,0.817578,
2009-09-19, 00:06:04,VALID,920.439,VALID,0,VALID,97.6026,VALID,0,VALID,18.2782,VALID,112,VALID,0.762891,
2009-09-19, 00:07:04,VALID,920.408,VALID,0,VALID,97.6026,VALID,0,VALID,18.2782,VALID,112,VALID,0.672656,
2009-09-19, 00:08:04,VALID,920.447,VALID,0,VALID,97.6331,VALID,0,VALID,18.2977,VALID,112,VALID,0.852734,
2009-09-19, 00:09:04,VALID,920.397,VALID,0,VALID,97.6102,VALID,0,VALID,18.2977,VALID,112,VALID,0.722266,
2009-09-19, 00:10:04,VALID,920.395,VALID,0,VALID,97.5797,VALID,0,VALID,18.2782,VALID,112,VALID,0.480469,
2009-09-19, 00:11:04,VALID,920.394,VALID,0,VALID,97.6026,VALID,0,VALID,18.2587,VALID,112,VALID,0.696094,
2009-09-19, 00:12:04,VALID,920.367,VALID,0,VALID,97.6026,VALID,0,VALID,18.2587,VALID,112,VALID,0.601172,
2009-09-19, 00:13:04,VALID,920.39,VALID,0,VALID,97.6178,VALID,0,VALID,18.2587,VALID,112,VALID,0.652344,
2009-09-19, 00:14:04,VALID,920.357,VALID,0,VALID,97.595,VALID,0,VALID,18.2392,VALID,112,VALID,0.805859,
2009-09-19, 00:15:04,VALID,920.316,VALID,0,VALID,97.5797,VALID,0,VALID,18.2392,VALID,112,VALID,0.882813,
2009-09-19, 00:16:04,VALID,920.321,VALID,0,VALID,97.5645,VALID,0,VALID,18.2197,VALID,112,VALID,0.658203,
2009-09-19, 00:17:04,VALID,920.306,VALID,0,VALID,97.5645,VALID,0,VALID,18.2197,VALID,112,VALID,0.398047,
2009-09-19, 00:18:04,VALID,920.288,VALID,0,VALID,97.5645,VALID,0,VALID,18.2002,VALID,111,VALID,0.307813,
2009-09-19, 00:19:04,VALID,920.275,VALID,0,VALID,97.595,VALID,0,VALID,18.2002,VALID,112,VALID,0.308984,
2009-09-19, 00:20:04,VALID,920.287,VALID,0,VALID,97.5873,VALID,0,VALID,18.2002,VALID,111,VALID,0.157422,
2009-09-19, 00:21:04,VALID,920.266,VALID,0,VALID,97.6026,VALID,0,VALID,18.2002,VALID,112,VALID,0.371484,
2009-09-19, 00:22:04,VALID,920.272,VALID,0,VALID,97.5797,VALID,0,VALID,18.2002,VALID,112,VALID,0.385547,
2009-09-19, 00:23:04,VALID,920.238,VALID,0,VALID,97.5797,VALID,0,VALID,18.1807,VALID,112,VALID,0.360156,
2009-09-19, 00:24:04,VALID,920.216,VALID,0,VALID,97.5797,VALID,0,VALID,18.1612,VALID,112,VALID,0.476563,
2009-09-19, 00:25:04,VALID,920.212,VALID,0,VALID,97.5797,VALID,0,VALID,18.1612,VALID,112,VALID,0.341016,
2009-09-19, 00:26:04,VALID,920.189,VALID,0,VALID,97.5264,VALID,0,VALID,18.1612,VALID,112,VALID,0.262109,
2009-09-19, 00:27:04,VALID,920.182,VALID,0,VALID,97.5416,VALID,0,VALID,18.1431,VALID,112,VALID,0.483594,
2009-09-19, 00:28:04,VALID,920.162,VALID,0,VALID,97.5035,VALID,0,VALID,18.1028,VALID,112,VALID,0.381641,
2009-09-19, 00:29:04,VALID,920.154,VALID,0,VALID,97.5492,VALID,0,VALID,18.0833,VALID,112,VALID,0.541016,
2009-09-19, 00:30:04,VALID,920.114,VALID,0,VALID,97.6026,VALID,0,VALID,18.1028,VALID,112,VALID,0.608203,
2009-09-19, 00:31:04,VALID,920.096,VALID,0,VALID,97.595,VALID,0,VALID,18.1222,VALID,111,VALID,0.381641,
2009-09-19, 00:32:04,VALID,920.083,VALID,0,VALID,97.5873,VALID,0,VALID,18.1028,VALID,112,VALID,0.147266,
2009-09-19, 00:33:04,VALID,920.048,VALID,0,VALID,97.595,VALID,0,VALID,18.1028,VALID,112,VALID,0,
2009-09-19, 00:34:04,VALID,920.069,VALID,0,VALID,97.6102,VALID,0,VALID,18.1222,VALID,112,VALID,0,
2009-09-19, 00:35:04,VALID,920.038,VALID,0,VALID,97.5187,VALID,0,VALID,18.0638,VALID,112,VALID,0,
2009-09-19, 00:36:04,VALID,920.002,VALID,0,VALID,97.5111,VALID,0,VALID,18.0248,VALID,112,VALID,0.522656,
2009-09-19, 00:37:04,VALID,920.03,VALID,0,VALID,97.5569,VALID,0,VALID,18.0053,VALID,112,VALID,0.772266,
2009-09-19, 00:38:04,VALID,919.992,VALID,0,VALID,97.5645,VALID,0,VALID,18.0248,VALID,111,VALID,0.894141,
2009-09-19, 00:39:04,VALID,919.98,VALID,0,VALID,97.5645,VALID,0,VALID,18.0248,VALID,111,VALID,1.00312,
2009-09-19, 00:40:04,VALID,919.964,VALID,0,VALID,97.5645,VALID,0,VALID,18.0248,VALID,111,VALID,0.965625,
2009-09-19, 00:41:04,VALID,919.943,VALID,0,VALID,97.5416,VALID,0,VALID,18.0457,VALID,112,VALID,0.680078,
2009-09-19, 00:42:04,VALID,919.929,VALID,0,VALID,97.5492,VALID,0,VALID,18.0248,VALID,112,VALID,0.555859,
2009-09-19, 00:43:04,VALID,919.905,VALID,0,VALID,97.5569,VALID,0,VALID,18.0053,VALID,112,VALID,0.748047,
2009-09-19, 00:44:04,VALID,919.918,VALID,0,VALID,97.5569,VALID,0,VALID,18.0248,VALID,112,VALID,0.838672,
2009-09-19, 00:45:04,VALID,919.881,VALID,0,VALID,97.5569,VALID,0,VALID,18.0248,VALID,112,VALID,0.825,
2009-09-19, 00:46:04,VALID,919.873,VALID,0,VALID,97.5492,VALID,0,VALID,18.0248,VALID,112,VALID,0.785937,
2009-09-19, 00:47:04,VALID,919.851,VALID,0,VALID,97.5416,VALID,0.107441,VALID,18.0248,VALID,112,VALID,0.687109,
2009-09-19, 00:48:04,VALID,919.837,VALID,0,VALID,97.5569,VALID,0,VALID,18.0053,VALID,112,VALID,0.801953,
2009-09-19, 00:49:04,VALID,919.83,VALID,0,VALID,97.5645,VALID,0,VALID,18.0443,VALID,112,VALID,0.913672,
2009-09-19, 00:50:04,VALID,919.837,VALID,0.2,VALID,97.5492,VALID,0,VALID,18.0638,VALID,112,VALID,0.492969,
2009-09-19, 00:51:04,VALID,919.809,VALID,0,VALID,97.5492,VALID,0,VALID,18.0443,VALID,112,VALID,0.754687,
2009-09-19, 00:52:04,VALID,919.819,VALID,0,VALID,97.5492,VALID,0,VALID,18.0638,VALID,112,VALID,0.612891,
2009-09-19, 00:53:04,VALID,919.787,VALID,0,VALID,97.5416,VALID,0,VALID,18.0846,VALID,112,VALID,0.625391,
2009-09-19, 00:54:04,VALID,919.755,VALID,0,VALID,97.5721,VALID,0,VALID,18.1041,VALID,112,VALID,0.327344,
2009-09-19, 00:55:04,VALID,919.729,VALID,0,VALID,97.5111,VALID,0,VALID,18.0638,VALID,112,VALID,0.412891,
2009-09-19, 00:56:04,VALID,919.738,VALID,0,VALID,97.5264,VALID,0,VALID,18.0638,VALID,112,VALID,0.200391,
2009-09-19, 00:57:04,VALID,919.75,VALID,0,VALID,97.5111,VALID,0,VALID,18.0846,VALID,112,VALID,0.338281,
2009-09-19, 00:58:04,VALID,919.716,VALID,0,VALID,97.5416,VALID,0,VALID,18.0443,VALID,112,VALID,0.425,
2009-09-19, 00:59:04,VALID,919.706,VALID,0,VALID,97.5264,VALID,0,VALID,18.0457,VALID,112,VALID,0.492188,
2009-09-19, 01:00:04,VALID,919.703,VALID,0,VALID,97.5264,VALID,0,VALID,18.0248,VALID,112,VALID,0.727344,
2009-09-19, 01:01:04,VALID,919.674,VALID,0,VALID,97.4882,VALID,0,VALID,18.0053,VALID,112,VALID,0.680469,
2009-09-19, 01:02:04,VALID,919.663,VALID,0,VALID,97.5569,VALID,0,VALID,18.0248,VALID,112,VALID,0.511328,
2009-09-19, 01:03:04,VALID,919.628,VALID,0,VALID,97.5187,VALID,0,VALID,18.0053,VALID,112,VALID,0.442187,
2009-09-19, 01:04:04,VALID,919.608,VALID,0,VALID,97.5569,VALID,0,VALID,18.0053,VALID,112,VALID,0.460938,
2009-09-19, 01:05:04,VALID,919.603,VALID,0,VALID,97.6102,VALID,0,VALID,18.0443,VALID,112,VALID,0.440625,
2009-09-19, 01:06:04,VALID,919.568,VALID,0,VALID,97.6407,VALID,0,VALID,18.0651,VALID,112,VALID,0.364062,
2009-09-19, 01:07:04,VALID,919.546,VALID,0,VALID,97.6255,VALID,0,VALID,18.0638,VALID,112,VALID,0.237109,
2009-09-19, 01:08:04,VALID,919.534,VALID,0,VALID,97.656,VALID,0,VALID,18.0833,VALID,112,VALID,0.215625,
2009-09-19, 01:09:04,VALID,919.521,VALID,0,VALID,97.6712,VALID,0,VALID,18.1041,VALID,112,VALID,0.308203,
2009-09-19, 01:10:04,VALID,919.491,VALID,0,VALID,97.6255,VALID,0,VALID,18.1431,VALID,112,VALID,0.250391,
2009-09-19, 01:11:04,VALID,919.45,VALID,0,VALID,97.6255,VALID,0,VALID,18.1222,VALID,112,VALID,0.248047,
2009-09-19, 01:12:04,VALID,919.456,VALID,0,VALID,97.6483,VALID,0,VALID,18.1417,VALID,112,VALID,0,
2009-09-19, 01:13:04,VALID,919.449,VALID,0,VALID,97.6636,VALID,0.107441,VALID,18.1821,VALID,112,VALID,0.394531,
2009-09-19, 01:14:04,VALID,919.419,VALID,0,VALID,97.6788,VALID,0,VALID,18.1612,VALID,112,VALID,0.224609,
2009-09-19, 01:15:04,VALID,919.402,VALID,0,VALID,97.6788,VALID,0,VALID,18.2197,VALID,112,VALID,0.439844,
2009-09-19, 01:16:04,VALID,919.388,VALID,0,VALID,97.656,VALID,0,VALID,18.2406,VALID,112,VALID,0.239453,
2009-09-19, 01:17:04,VALID,919.363,VALID,0,VALID,97.6483,VALID,0,VALID,18.2392,VALID,112,VALID,0.294141,
2009-09-19, 01:18:04,VALID,919.38,VALID,0,VALID,97.6788,VALID,0,VALID,18.2392,VALID,112,VALID,0.301562,
2009-09-19, 01:19:04,VALID,919.39,VALID,0,VALID,97.6788,VALID,0,VALID,18.2587,VALID,112,VALID,0.391406,
2009-09-19, 01:20:04,VALID,919.338,VALID,0,VALID,97.6865,VALID,0,VALID,18.2782,VALID,112,VALID,0.144141,
2009-09-19, 01:21:04,VALID,919.343,VALID,0,VALID,97.6178,VALID,0,VALID,18.2782,VALID,112,VALID,0.10625,
2009-09-19, 01:22:04,VALID,919.346,VALID,0,VALID,97.6407,VALID,0,VALID,18.2782,VALID,112,VALID,0.640234,
2009-09-19, 01:23:04,VALID,919.331,VALID,0,VALID,97.6255,VALID,0,VALID,18.2796,VALID,112,VALID,0.579297,
2009-09-19, 01:24:04,VALID,919.341,VALID,0,VALID,97.6178,VALID,0,VALID,18.2587,VALID,112,VALID,0.497656,
2009-09-19, 01:25:04,VALID,919.392,VALID,0,VALID,97.5645,VALID,0,VALID,18.2002,VALID,112,VALID,0.243359,
2009-09-19, 01:26:04,VALID,919.358,VALID,0,VALID,97.5797,VALID,0,VALID,18.2016,VALID,112,VALID,0.242578,
2009-09-19, 01:27:04,VALID,919.362,VALID,0,VALID,97.5873,VALID,0,VALID,18.2016,VALID,112,VALID,0.164844,
2009-09-19, 01:28:04,VALID,919.34,VALID,0,VALID,97.5797,VALID,0,VALID,18.1821,VALID,112,VALID,0.130469,
2009-09-19, 01:29:04,VALID,919.352,VALID,0,VALID,97.6178,VALID,0,VALID,18.1612,VALID,112,VALID,0.178906,
2009-09-19, 01:30:04,VALID,919.357,VALID,0,VALID,97.6407,VALID,0,VALID,18.1821,VALID,112,VALID,0.179297,
2009-09-19, 01:31:04,VALID,919.36,VALID,0,VALID,97.6102,VALID,0,VALID,18.1626,VALID,112,VALID,0.273828,
2009-09-19, 01:32:04,VALID,919.357,VALID,0,VALID,97.595,VALID,0,VALID,18.1431,VALID,112,VALID,0.406641,
2009-09-19, 01:33:04,VALID,919.346,VALID,0,VALID,97.6026,VALID,0,VALID,18.1028,VALID,112,VALID,0.145313,
2009-09-19, 01:34:04,VALID,919.332,VALID,0,VALID,97.6026,VALID,0,VALID,18.1236,VALID,112,VALID,0,
2009-09-19, 01:35:04,VALID,919.311,VALID,0,VALID,97.6178,VALID,0,VALID,18.1236,VALID,112,VALID,0,
2009-09-19, 01:36:04,VALID,919.324,VALID,0,VALID,97.6255,VALID,0,VALID,18.1028,VALID,112,VALID,0.0179687,
2009-09-19, 01:37:04,VALID,919.293,VALID,0,VALID,97.6026,VALID,0,VALID,18.1028,VALID,112,VALID,0.589063,
2009-09-19, 01:38:04,VALID,919.299,VALID,0,VALID,97.6026,VALID,0,VALID,18.1041,VALID,112,VALID,0.645703,
2009-09-19, 01:39:04,VALID,919.283,VALID,0,VALID,97.595,VALID,0,VALID,18.0638,VALID,112,VALID,0.598047,
2009-09-19, 01:40:04,VALID,919.275,VALID,0,VALID,97.5873,VALID,0,VALID,18.1041,VALID,112,VALID,0.505078,
2009-09-19, 01:41:04,VALID,919.3,VALID,0,VALID,97.6407,VALID,0,VALID,18.0833,VALID,112,VALID,0.388281,
2009-09-19, 01:42:04,VALID,919.234,VALID,0,VALID,97.6102,VALID,0,VALID,18.1028,VALID,112,VALID,0.500391,
2009-09-19, 01:43:04,VALID,919.245,VALID,0,VALID,97.6026,VALID,0,VALID,18.1028,VALID,112,VALID,0.445313,
2009-09-19, 01:44:04,VALID,919.218,VALID,0,VALID,97.6483,VALID,0,VALID,18.1028,VALID,112,VALID,0.408984,
2009-09-19, 01:45:04,VALID,919.225,VALID,0,VALID,97.6483,VALID,0,VALID,18.1028,VALID,112,VALID,0.561328,
2009-09-19, 01:46:04,VALID,919.232,VALID,0,VALID,97.6407,VALID,0,VALID,18.1222,VALID,112,VALID,0.716016,
2009-09-19, 01:47:04,VALID,919.237,VALID,0,VALID,97.656,VALID,0,VALID,18.1417,VALID,112,VALID,0.447656,
2009-09-19, 01:48:04,VALID,919.231,VALID,0,VALID,97.7093,VALID,0,VALID,18.1807,VALID,112,VALID,0.574609,
2009-09-19, 01:49:04,VALID,919.208,VALID,0,VALID,97.6407,VALID,0,VALID,18.1807,VALID,112,VALID,0.492969,
2009-09-19, 01:50:04,VALID,919.197,VALID,0,VALID,97.6941,VALID,0,VALID,18.2016,VALID,112,VALID,0.364453,
2009-09-19, 01:51:04,VALID,919.184,VALID,0,VALID,97.6865,VALID,0,VALID,18.2211,VALID,112,VALID,0.365625,
2009-09-19, 01:52:04,VALID,919.171,VALID,0,VALID,97.6712,VALID,0,VALID,18.2406,VALID,112,VALID,0.0492188,
2009-09-19, 01:53:04,VALID,919.221,VALID,0,VALID,97.6331,VALID,0,VALID,18.2197,VALID,112,VALID,0.210938,
2009-09-19, 01:54:04,VALID,919.165,VALID,0,VALID,97.6483,VALID,0,VALID,18.2211,VALID,112,VALID,0,
2009-09-19, 01:55:04,VALID,919.161,VALID,0,VALID,97.6636,VALID,0,VALID,18.2197,VALID,112,VALID,0,
2009-09-19, 01:56:04,VALID,919.151,VALID,0,VALID,97.6407,VALID,0,VALID,18.2002,VALID,112,VALID,0.301172,
2009-09-19, 01:57:04,VALID,919.141,VALID,0,VALID,97.6331,VALID,0,VALID,18.2002,VALID,112,VALID,0.197656,
2009-09-19, 01:58:04,VALID,919.138,VALID,0,VALID,97.6331,VALID,0,VALID,18.2002,VALID,112,VALID,0.0910156,
2009-09-19, 01:59:04,VALID,919.106,VALID,0,VALID,97.6407,VALID,0,VALID,18.1807,VALID,112,VALID,0,
2009-09-19, 02:00:04,VALID,919.139,VALID,0,VALID,97.6331,VALID,0,VALID,18.2016,VALID,112,VALID,0.568359,
2009-09-19, 02:01:04,VALID,919.117,VALID,0,VALID,97.6178,VALID,0,VALID,18.1807,VALID,112,VALID,0.853516,
2009-09-19, 02:02:04,VALID,919.104,VALID,0,VALID,97.5721,VALID,0,VALID,18.1612,VALID,112,VALID,0.659375,
2009-09-19, 02:03:04,VALID,919.078,VALID,0,VALID,97.5416,VALID,0,VALID,18.1431,VALID,112,VALID,0.641406,
2009-09-19, 02:04:04,VALID,919.11,VALID,0,VALID,97.5569,VALID,0,VALID,18.1222,VALID,112,VALID,0.323438,
2009-09-19, 02:05:04,VALID,919.106,VALID,0,VALID,97.5797,VALID,0,VALID,18.1431,VALID,112,VALID,0.694141,
2009-09-19, 02:06:04,VALID,919.103,VALID,0,VALID,97.5873,VALID,0,VALID,18.1236,VALID,112,VALID,0.397266,
2009-09-19, 02:07:04,VALID,919.119,VALID,0,VALID,97.5797,VALID,0,VALID,18.1236,VALID,112,VALID,0.267188,
2009-09-19, 02:08:04,VALID,919.106,VALID,0,VALID,97.6102,VALID,0,VALID,18.1236,VALID,112,VALID,0.0425781,
2009-09-19, 02:09:04,VALID,919.099,VALID,0,VALID,97.6407,VALID,0,VALID,18.1626,VALID,112,VALID,0.271094,
2009-09-19, 02:10:04,VALID,919.12,VALID,0,VALID,97.6331,VALID,0,VALID,18.1821,VALID,112,VALID,0.439063,
2009-09-19, 02:11:04,VALID,919.128,VALID,0,VALID,97.6636,VALID,0,VALID,18.1612,VALID,112,VALID,0.458594,
2009-09-19, 02:12:04,VALID,919.118,VALID,0,VALID,97.6407,VALID,0,VALID,18.1807,VALID,112,VALID,0.351172,
2009-09-19, 02:13:04,VALID,919.122,VALID,0,VALID,97.5873,VALID,0,VALID,18.1612,VALID,112,VALID,0.648047,
2009-09-19, 02:14:04,VALID,919.146,VALID,0,VALID,97.5873,VALID,0,VALID,18.1417,VALID,112,VALID,0.769922,
2009-09-19, 02:15:04,VALID,919.158,VALID,0,VALID,97.5797,VALID,0,VALID,18.1626,VALID,112,VALID,0.202734,
2009-09-19, 02:16:04,VALID,919.111,VALID,0,VALID,97.595,VALID,0,VALID,18.1417,VALID,112,VALID,0.355859,
2009-09-19, 02:17:04,VALID,919.117,VALID,0,VALID,97.6255,VALID,0,VALID,18.1821,VALID,112,VALID,0.413672,
2009-09-19, 02:18:04,VALID,919.116,VALID,0,VALID,97.5416,VALID,0,VALID,18.1222,VALID,112,VALID,0.703516,
2009-09-19, 02:19:04,VALID,919.131,VALID,0,VALID,97.5187,VALID,0,VALID,18.1028,VALID,112,VALID,0.985156,
2009-09-19, 02:20:04,VALID,919.134,VALID,0,VALID,97.5264,VALID,0,VALID,18.1028,VALID,112,VALID,0.998047,
2009-09-19, 02:21:04,VALID,919.106,VALID,0,VALID,97.5492,VALID,0,VALID,18.0833,VALID,358,VALID,0.722656,
2009-09-19, 02:22:04,VALID,919.101,VALID,0,VALID,97.5569,VALID,0,VALID,18.0833,VALID,335,VALID,1.14063,
2009-09-19, 02:23:04,VALID,919.059,VALID,0,VALID,97.595,VALID,0,VALID,18.1028,VALID,335,VALID,0.783594,
2009-09-19, 02:24:04,VALID,919.058,VALID,0,VALID,97.5416,VALID,0,VALID,18.1028,VALID,335,VALID,0.925781,
2009-09-19, 02:25:04,VALID,919.061,VALID,0,VALID,97.5492,VALID,0,VALID,18.0833,VALID,335,VALID,1.25234,
2009-09-19, 02:26:04,VALID,919.051,VALID,0,VALID,97.5569,VALID,0,VALID,18.0833,VALID,335,VALID,1.21094,
2009-09-19, 02:27:04,VALID,919.067,VALID,0,VALID,97.534,VALID,0,VALID,18.0833,VALID,335,VALID,1.13125,
2009-09-19, 02:28:04,VALID,919.052,VALID,0,VALID,97.5721,VALID,0,VALID,18.0833,VALID,335,VALID,0.610937,
2009-09-19, 02:29:04,VALID,919.065,VALID,0,VALID,97.595,VALID,0,VALID,18.1417,VALID,335,VALID,0.602734,
2009-09-19, 02:30:04,VALID,919.072,VALID,0,VALID,97.6102,VALID,0,VALID,18.1612,VALID,335,VALID,0.517187,
2009-09-19, 02:31:04,VALID,919.052,VALID,0,VALID,97.6407,VALID,0,VALID,18.1807,VALID,335,VALID,0.0179687,
2009-09-19, 02:32:04,VALID,919.014,VALID,0,VALID,97.6178,VALID,0,VALID,18.2016,VALID,335,VALID,0.447266,
2009-09-19, 02:33:04,VALID,919.005,VALID,0,VALID,97.5873,VALID,0,VALID,18.2016,VALID,335,VALID,1.42188,
2009-09-19, 02:34:04,VALID,919.008,VALID,0,VALID,97.5721,VALID,0,VALID,18.1807,VALID,335,VALID,1.19375,
2009-09-19, 02:35:04,VALID,919.024,VALID,0,VALID,97.5264,VALID,0,VALID,18.1612,VALID,335,VALID,1.14609,
2009-09-19, 02:36:04,VALID,919.027,VALID,0,VALID,97.5416,VALID,0,VALID,18.1417,VALID,335,VALID,0.583203,
2009-09-19, 02:37:04,VALID,918.985,VALID,0,VALID,97.5645,VALID,0,VALID,18.1417,VALID,335,VALID,0.194141,
2009-09-19, 02:38:04,VALID,919.015,VALID,0,VALID,97.5797,VALID,0,VALID,18.1807,VALID,335,VALID,0.241406,
2009-09-19, 02:39:04,VALID,919.03,VALID,0,VALID,97.5873,VALID,0,VALID,18.2002,VALID,335,VALID,0.645312,
2009-09-19, 02:40:04,VALID,919.007,VALID,0,VALID,97.5569,VALID,0,VALID,18.1807,VALID,334,VALID,1.27227,
2009-09-19, 02:41:04,VALID,918.998,VALID,0,VALID,97.5416,VALID,0,VALID,18.1807,VALID,334,VALID,0.742188,
2009-09-19, 02:42:04,VALID,919.007,VALID,0,VALID,97.5264,VALID,0.107441,VALID,18.1807,VALID,334,VALID,1.17148,
2009-09-19, 02:43:04,VALID,918.985,VALID,0,VALID,97.5264,VALID,0,VALID,18.2002,VALID,330,VALID,1.01211,
2009-09-19, 02:44:04,VALID,918.96,VALID,0,VALID,97.4425,VALID,0,VALID,18.2002,VALID,328,VALID,1.34844,
2009-09-19, 02:45:04,VALID,918.977,VALID,0,VALID,97.412,VALID,0,VALID,18.2002,VALID,328,VALID,1.32227,
2009-09-19, 02:46:04,VALID,918.942,VALID,0,VALID,97.3815,VALID,0,VALID,18.2002,VALID,328,VALID,1.48711,
2009-09-19, 02:47:04,VALID,918.923,VALID,0,VALID,97.3586,VALID,0,VALID,18.2392,VALID,328,VALID,1.11523,
2009-09-19, 02:48:04,VALID,918.917,VALID,0,VALID,97.3129,VALID,0,VALID,18.2392,VALID,328,VALID,1.12148,
2009-09-19, 02:49:04,VALID,918.891,VALID,0,VALID,97.2672,VALID,0,VALID,18.2197,VALID,329,VALID,1.13516,
2009-09-19, 02:50:04,VALID,918.854,VALID,0,VALID,97.1681,VALID,0,VALID,18.2002,VALID,328,VALID,1.38359,
2009-09-19, 02:51:04,VALID,918.844,VALID,0,VALID,97.1452,VALID,0,VALID,18.2002,VALID,329,VALID,1.32852,
2009-09-19, 02:52:04,VALID,918.837,VALID,0,VALID,97.1452,VALID,0,VALID,18.2197,VALID,329,VALID,1.01992,
2009-09-19, 02:53:04,VALID,918.816,VALID,0,VALID,97.1376,VALID,0,VALID,18.2197,VALID,328,VALID,1.28945,
2009-09-19, 02:54:04,VALID,918.78,VALID,0,VALID,97.0994,VALID,0,VALID,18.2197,VALID,328,VALID,1.42031,
2009-09-19, 02:55:04,VALID,918.77,VALID,0,VALID,96.9927,VALID,0,VALID,18.2587,VALID,329,VALID,1.19648,
2009-09-19, 02:56:04,VALID,918.745,VALID,0,VALID,97.0232,VALID,0,VALID,18.2782,VALID,331,VALID,0.858203,
2009-09-19, 02:57:04,VALID,918.761,VALID,0,VALID,96.9927,VALID,0,VALID,18.2782,VALID,75,VALID,0.678516,
2009-09-19, 02:58:04,VALID,918.742,VALID,0,VALID,96.9622,VALID,0,VALID,18.2977,VALID,75,VALID,0.935547,
2009-09-19, 02:59:04,VALID,918.754,VALID,0,VALID,96.9317,VALID,0,VALID,18.2782,VALID,75,VALID,0.862109,
2009-09-19, 03:00:04,VALID,918.77,VALID,0,VALID,96.9317,VALID,0,VALID,18.2782,VALID,75,VALID,0.492578,
2009-09-19, 03:01:04,VALID,918.786,VALID,0,VALID,97.0385,VALID,0,VALID,18.3185,VALID,75,VALID,0.383203,
2009-09-19, 03:02:04,VALID,918.764,VALID,0,VALID,97.0918,VALID,0,VALID,18.2977,VALID,75,VALID,0.0453125,
2009-09-19, 03:03:04,VALID,918.773,VALID,0,VALID,97.1071,VALID,0.107441,VALID,18.2768,VALID,75,VALID,0.143359,
2009-09-19, 03:04:04,VALID,918.776,VALID,0,VALID,97.0842,VALID,0,VALID,18.2573,VALID,75,VALID,0.616406,
2009-09-19, 03:05:04,VALID,918.783,VALID,0,VALID,97.0156,VALID,0,VALID,18.2392,VALID,75,VALID,0.908594,
2009-09-19, 03:06:04,VALID,918.778,VALID,0,VALID,96.9698,VALID,0,VALID,18.2587,VALID,127,VALID,0.721484,
2009-09-19, 03:07:04,VALID,918.799,VALID,0,VALID,96.9241,VALID,0.107441,VALID,18.2977,VALID,127,VALID,0.620703,
2009-09-19, 03:08:04,VALID,918.801,VALID,0,VALID,96.9012,VALID,0,VALID,18.2587,VALID,131,VALID,0.768359,
2009-09-19, 03:09:04,VALID,918.769,VALID,0,VALID,96.9546,VALID,0,VALID,18.2392,VALID,147,VALID,0.591797,
2009-09-19, 03:10:04,VALID,918.762,VALID,0,VALID,97.0308,VALID,0.107441,VALID,18.2197,VALID,147,VALID,0.869141,
2009-09-19, 03:11:04,VALID,918.77,VALID,0,VALID,97.1299,VALID,0.107441,VALID,18.1988,VALID,147,VALID,0.832422,
2009-09-19, 03:12:04,VALID,918.721,VALID,0,VALID,97.1833,VALID,0,VALID,18.2197,VALID,147,VALID,0.933984,
2009-09-19, 03:13:04,VALID,918.713,VALID,0,VALID,97.2138,VALID,0,VALID,18.2002,VALID,147,VALID,0.728516,
2009-09-19, 03:14:04,VALID,918.711,VALID,0,VALID,97.2595,VALID,0,VALID,18.2002,VALID,147,VALID,0.708984,
2009-09-19, 03:15:04,VALID,918.682,VALID,0,VALID,97.2824,VALID,0,VALID,18.2002,VALID,147,VALID,0.919531,
2009-09-19, 03:16:04,VALID,918.675,VALID,0,VALID,97.3129,VALID,0,VALID,18.2002,VALID,159,VALID,0.625,
2009-09-19, 03:17:04,VALID,918.642,VALID,0,VALID,97.3281,VALID,0,VALID,18.1807,VALID,159,VALID,0.790625,
2009-09-19, 03:18:04,VALID,918.658,VALID,0,VALID,97.3205,VALID,0.107441,VALID,18.1612,VALID,159,VALID,1.09727,
2009-09-19, 03:19:04,VALID,918.674,VALID,0,VALID,97.3205,VALID,0,VALID,18.2002,VALID,159,VALID,0.620313,
2009-09-19, 03:20:04,VALID,918.653,VALID,0,VALID,97.2672,VALID,0,VALID,18.2002,VALID,159,VALID,0.605469,
2009-09-19, 03:21:04,VALID,918.672,VALID,0,VALID,97.1757,VALID,0,VALID,18.2197,VALID,159,VALID,0.623828,
2009-09-19, 03:22:04,VALID,918.675,VALID,0,VALID,97.0842,VALID,0,VALID,18.2392,VALID,159,VALID,0.6125,
2009-09-19, 03:23:04,VALID,918.663,VALID,0,VALID,97.0613,VALID,0.107441,VALID,18.2197,VALID,159,VALID,0.579297,
2009-09-19, 03:24:04,VALID,918.662,VALID,0,VALID,97.0003,VALID,0.107441,VALID,18.2183,VALID,159,VALID,0.55625,
2009-09-19, 03:25:04,VALID,918.673,VALID,0,VALID,96.9089,VALID,0,VALID,18.2782,VALID,159,VALID,0.5625,
2009-09-19, 03:26:04,VALID,918.679,VALID,0,VALID,96.8631,VALID,0.107441,VALID,18.2782,VALID,159,VALID,0.337891,
2009-09-19, 03:27:04,VALID,918.674,VALID,0,VALID,96.825,VALID,0,VALID,18.2782,VALID,159,VALID,0.405078,
2009-09-19, 03:28:04,VALID,918.653,VALID,0,VALID,96.7335,VALID,0,VALID,18.2977,VALID,159,VALID,0.684375,
2009-09-19, 03:29:04,VALID,918.659,VALID,0,VALID,96.6192,VALID,0,VALID,18.2782,VALID,159,VALID,0.876172,
2009-09-19, 03:30:04,VALID,918.679,VALID,0,VALID,96.6039,VALID,0,VALID,18.2796,VALID,159,VALID,0.698828,
2009-09-19, 03:31:04,VALID,918.652,VALID,0,VALID,96.5582,VALID,0.107441,VALID,18.2587,VALID,159,VALID,0.564453,
2009-09-19, 03:32:04,VALID,918.643,VALID,0,VALID,96.5506,VALID,0,VALID,18.2587,VALID,159,VALID,0.50625,
2009-09-19, 03:33:04,VALID,918.615,VALID,0,VALID,96.5124,VALID,0,VALID,18.2782,VALID,159,VALID,0.782422,
2009-09-19, 03:34:04,VALID,918.62,VALID,0,VALID,96.4438,VALID,0,VALID,18.3172,VALID,159,VALID,0.809766,
2009-09-19, 03:35:04,VALID,918.572,VALID,0,VALID,96.4438,VALID,0,VALID,18.2977,VALID,159,VALID,0.897266,
2009-09-19, 03:36:04,VALID,918.578,VALID,0,VALID,96.4972,VALID,0.107441,VALID,18.2782,VALID,159,VALID,0.632031,
2009-09-19, 03:37:04,VALID,918.55,VALID,0,VALID,96.6802,VALID,0,VALID,18.2392,VALID,159,VALID,0.989844,
2009-09-19, 03:38:04,VALID,918.562,VALID,0,VALID,96.825,VALID,0,VALID,18.2392,VALID,159,VALID,0.676953,
2009-09-19, 03:39:04,VALID,918.582,VALID,0,VALID,96.9317,VALID,0,VALID,18.2002,VALID,159,VALID,0.916797,
2009-09-19, 03:40:04,VALID,918.594,VALID,0,VALID,97.0003,VALID,0.107441,VALID,18.2002,VALID,159,VALID,1.04688,
2009-09-19, 03:41:04,VALID,918.59,VALID,0,VALID,96.9546,VALID,0,VALID,18.2211,VALID,159,VALID,0.829687,
2009-09-19, 03:42:04,VALID,918.584,VALID,0,VALID,96.9012,VALID,0,VALID,18.2587,VALID,159,VALID,1.15664,
2009-09-19, 03:43:04,VALID,918.577,VALID,0,VALID,96.7945,VALID,0,VALID,18.3185,VALID,158,VALID,0.941797,
2009-09-19, 03:44:04,VALID,918.576,VALID,0,VALID,96.7259,VALID,0.107441,VALID,18.3172,VALID,158,VALID,0.901172,